Location: Martin Dies, Jr. State Park
(30.8429°N, 94.1720°W)
Time: 03:06:54
(UTC-06:00)

ISS - Pass Details

Date: 20 November 2019
Orbit: 411 x 421 km, 51.6° (Epoch: 13 December)

Event Time Altitude Azimuth Distance (km) Brightness Sun altitude
Rises 19:07:02 0° 249° (WSW) 2,343 1.4 -23.5°
Reaches altitude 10° 19:09:21 10° 263° (W) 1,486 0.1 -24.0°
Enters shadow 19:11:53 25° 311° (NW) 885 -1.8 -24.5°
